Year,Month,Day,Hour,Minute,Value (Times are PST for temperature in C)
2012,07,16,00,00,15.90
2012,07,16,00,01,15.90
2012,07,16,00,02,16.00
2012,07,16,00,03,15.90
2012,07,16,00,04,15.90
2012,07,16,00,05,15.90
2012,07,16,00,06,15.90
2012,07,16,00,07,15.90
2012,07,16,00,08,15.90
2012,07,16,00,09,15.90
2012,07,16,00,10,15.90
2012,07,16,00,11,15.80
2012,07,16,00,12,15.80
2012,07,16,00,13,15.80
2012,07,16,00,14,15.80
2012,07,16,00,15,15.80
2012,07,16,00,16,15.80
2012,07,16,00,17,15.80
2012,07,16,00,18,15.80
2012,07,16,00,19,15.80
2012,07,16,00,20,15.70
2012,07,16,00,21,15.70
2012,07,16,00,22,15.70
2012,07,16,00,23,15.70
2012,07,16,00,24,15.70
2012,07,16,00,25,15.70
2012,07,16,00,26,15.70
2012,07,16,00,27,15.70
2012,07,16,00,28,15.70
2012,07,16,00,29,15.70
2012,07,16,00,30,15.70
2012,07,16,00,31,15.70
2012,07,16,00,32,15.70
2012,07,16,00,33,15.70
2012,07,16,00,34,15.70
2012,07,16,00,35,15.70
2012,07,16,00,36,15.70
2012,07,16,00,37,15.70
2012,07,16,00,38,15.70
2012,07,16,00,39,15.70
2012,07,16,00,40,15.70
2012,07,16,00,41,15.70
2012,07,16,00,42,15.70
2012,07,16,00,43,15.70
2012,07,16,00,44,15.70
2012,07,16,00,45,15.70
2012,07,16,00,46,15.60
2012,07,16,00,47,15.60
2012,07,16,00,48,15.60
2012,07,16,00,49,15.60
2012,07,16,00,50,15.60
2012,07,16,00,51,15.60
2012,07,16,00,52,15.60
2012,07,16,00,53,15.50
2012,07,16,00,54,15.50
2012,07,16,00,55,15.50
2012,07,16,00,56,15.50
2012,07,16,00,57,15.50
2012,07,16,00,58,15.50
2012,07,16,00,59,15.50
2012,07,16,01,00,15.50
2012,07,16,01,01,15.50
2012,07,16,01,02,15.50
2012,07,16,01,03,15.60
2012,07,16,01,04,15.60
2012,07,16,01,05,15.60
2012,07,16,01,06,15.60
2012,07,16,01,07,15.60
2012,07,16,01,08,15.60
2012,07,16,01,09,15.60
2012,07,16,01,10,15.60
2012,07,16,01,11,15.60
2012,07,16,01,12,15.70
2012,07,16,01,13,15.70
2012,07,16,01,14,15.70
2012,07,16,01,15,15.70
2012,07,16,01,16,15.70
2012,07,16,01,17,15.70
2012,07,16,01,18,15.70
2012,07,16,01,19,15.80
2012,07,16,01,20,15.80
2012,07,16,01,21,15.80
2012,07,16,01,22,15.80
2012,07,16,01,23,15.80
2012,07,16,01,24,15.70
2012,07,16,01,25,15.70
2012,07,16,01,26,15.70
2012,07,16,01,27,15.60
2012,07,16,01,28,15.60
2012,07,16,01,29,15.60
2012,07,16,01,30,15.60
2012,07,16,01,31,15.60
2012,07,16,01,32,15.60
2012,07,16,01,33,15.50
2012,07,16,01,34,15.50
2012,07,16,01,35,15.50
2012,07,16,01,36,15.50
2012,07,16,01,37,15.50
2012,07,16,01,38,15.50
2012,07,16,01,39,15.50
2012,07,16,01,40,15.50
2012,07,16,01,41,15.50
2012,07,16,01,42,15.50
2012,07,16,01,43,15.50
2012,07,16,01,44,15.60
2012,07,16,01,45,15.60
2012,07,16,01,46,15.60
2012,07,16,01,47,15.60
2012,07,16,01,48,15.60
2012,07,16,01,49,15.60
2012,07,16,01,50,15.60
2012,07,16,01,51,15.60
2012,07,16,01,52,15.60
2012,07,16,01,53,15.60
2012,07,16,01,54,15.60
2012,07,16,01,55,15.60
2012,07,16,01,56,15.60
2012,07,16,01,57,15.60
2012,07,16,01,58,15.60
2012,07,16,01,59,15.60
2012,07,16,02,00,15.60
2012,07,16,02,01,15.60
2012,07,16,02,02,15.60
2012,07,16,02,03,15.50
2012,07,16,02,04,15.50
2012,07,16,02,05,15.50
2012,07,16,02,06,15.50
2012,07,16,02,07,15.50
2012,07,16,02,08,15.50
2012,07,16,02,09,15.40
2012,07,16,02,10,15.40
2012,07,16,02,11,15.40
2012,07,16,02,12,15.40
2012,07,16,02,13,15.40
2012,07,16,02,14,15.40
2012,07,16,02,15,15.40
2012,07,16,02,16,15.40
2012,07,16,02,17,15.50
2012,07,16,02,18,15.50
2012,07,16,02,19,15.50
2012,07,16,02,20,15.60
2012,07,16,02,21,15.60
2012,07,16,02,22,15.60
2012,07,16,02,23,15.60
2012,07,16,02,24,15.60
2012,07,16,02,25,15.60
2012,07,16,02,26,15.70
2012,07,16,02,27,15.70
2012,07,16,02,28,15.70
2012,07,16,02,29,15.70
2012,07,16,02,30,15.70
2012,07,16,02,31,15.70
2012,07,16,02,32,15.80
2012,07,16,02,33,15.80
2012,07,16,02,34,15.80
2012,07,16,02,35,15.80
2012,07,16,02,36,15.80
2012,07,16,02,37,15.80
2012,07,16,02,38,15.80
2012,07,16,02,39,15.80
2012,07,16,02,40,15.80
2012,07,16,02,41,15.80
2012,07,16,02,42,15.80
2012,07,16,02,43,15.80
2012,07,16,02,44,15.80
2012,07,16,02,45,15.80
2012,07,16,02,46,15.80
2012,07,16,02,47,15.80
2012,07,16,02,48,15.80
2012,07,16,02,49,15.80
2012,07,16,02,50,15.80
2012,07,16,02,51,15.80
2012,07,16,02,52,15.80
2012,07,16,02,53,15.80
2012,07,16,02,54,15.80
2012,07,16,02,55,15.80
2012,07,16,02,56,15.80
2012,07,16,02,57,15.80
2012,07,16,02,58,15.80
2012,07,16,02,59,15.80
2012,07,16,03,00,15.80
2012,07,16,03,01,15.80
2012,07,16,03,02,15.80
2012,07,16,03,06,15.80
2012,07,16,03,07,15.80
2012,07,16,03,08,15.80
2012,07,16,03,09,15.80
2012,07,16,03,10,15.80
2012,07,16,03,11,15.80
2012,07,16,03,12,15.80
2012,07,16,03,13,15.80
2012,07,16,03,14,15.80
2012,07,16,03,15,15.80
2012,07,16,03,16,15.80
2012,07,16,03,17,15.80
2012,07,16,03,18,15.90
2012,07,16,03,19,15.90
2012,07,16,03,20,15.90
2012,07,16,03,21,15.90
2012,07,16,03,22,15.90
2012,07,16,03,23,15.90
2012,07,16,03,24,16.00
2012,07,16,03,25,16.00
2012,07,16,03,26,16.00
2012,07,16,03,27,16.00
2012,07,16,03,28,16.10
2012,07,16,03,29,16.10
2012,07,16,03,30,16.10
2012,07,16,03,31,16.10
2012,07,16,03,32,16.10
2012,07,16,03,33,16.10
2012,07,16,03,34,16.10
2012,07,16,03,35,16.10
2012,07,16,03,36,16.10
2012,07,16,03,37,16.10
2012,07,16,03,38,16.10
2012,07,16,03,39,16.10
2012,07,16,03,40,16.10
2012,07,16,03,41,16.10
2012,07,16,03,42,16.10
2012,07,16,03,43,16.10
2012,07,16,03,44,16.10
2012,07,16,03,45,16.10
2012,07,16,03,46,16.10
2012,07,16,03,47,16.10
2012,07,16,03,48,16.10
2012,07,16,03,49,16.10
2012,07,16,03,50,16.10
2012,07,16,03,51,16.10
2012,07,16,03,52,16.10
2012,07,16,03,53,16.10
2012,07,16,03,54,16.10
2012,07,16,03,55,16.10
2012,07,16,03,56,16.10
2012,07,16,03,57,16.10
2012,07,16,03,58,16.10
2012,07,16,03,59,16.10
2012,07,16,04,00,16.10
2012,07,16,04,01,16.10
2012,07,16,04,02,16.00
2012,07,16,04,03,16.00
2012,07,16,04,04,16.00
2012,07,16,04,05,15.90
2012,07,16,04,06,15.90
2012,07,16,04,07,15.90
2012,07,16,04,08,15.90
2012,07,16,04,09,15.90
2012,07,16,04,10,15.90
2012,07,16,04,11,15.90
2012,07,16,04,12,15.90
2012,07,16,04,13,15.90
2012,07,16,04,14,15.80
2012,07,16,04,15,15.80
2012,07,16,04,16,15.80
2012,07,16,04,17,15.80
2012,07,16,04,18,15.80
2012,07,16,04,19,15.80
2012,07,16,04,20,15.80
2012,07,16,04,21,15.80
2012,07,16,04,22,15.80
2012,07,16,04,23,15.80
2012,07,16,04,24,15.80
2012,07,16,04,25,15.80
2012,07,16,04,26,15.80
2012,07,16,04,27,15.80
2012,07,16,04,28,15.80
2012,07,16,04,29,15.80
2012,07,16,04,30,15.80
2012,07,16,04,31,15.80
2012,07,16,04,32,15.90
2012,07,16,04,33,15.90
2012,07,16,04,34,15.90
2012,07,16,04,35,15.90
2012,07,16,04,36,15.90
2012,07,16,04,37,15.90
2012,07,16,04,38,15.90
2012,07,16,04,39,15.90
2012,07,16,04,40,15.90
2012,07,16,04,41,15.80
2012,07,16,04,42,15.80
2012,07,16,04,43,15.80
2012,07,16,04,44,15.80
2012,07,16,04,45,15.80
2012,07,16,04,46,15.80
2012,07,16,04,47,15.80
2012,07,16,04,48,15.80
2012,07,16,04,49,15.80
2012,07,16,04,50,15.80
2012,07,16,04,51,15.80
2012,07,16,04,52,15.80
2012,07,16,04,53,15.80
2012,07,16,04,54,15.80
2012,07,16,04,55,15.80
2012,07,16,04,56,15.80
2012,07,16,04,57,15.80
2012,07,16,04,58,15.80
2012,07,16,04,59,15.80
2012,07,16,05,00,15.80
2012,07,16,05,01,15.80
2012,07,16,05,02,15.80
2012,07,16,05,03,15.80
2012,07,16,05,04,15.80
2012,07,16,05,05,15.80
2012,07,16,05,06,15.90
2012,07,16,05,07,15.90
2012,07,16,05,08,15.90
2012,07,16,05,09,15.90
2012,07,16,05,10,15.90
2012,07,16,05,11,15.90
2012,07,16,05,12,15.90
2012,07,16,05,13,15.90
2012,07,16,05,14,15.90
2012,07,16,05,15,15.90
2012,07,16,05,16,15.90
2012,07,16,05,17,15.90
2012,07,16,05,18,16.00
2012,07,16,05,19,16.00
2012,07,16,05,20,16.00
2012,07,16,05,21,16.00
2012,07,16,05,22,16.10
2012,07,16,05,23,16.10
2012,07,16,05,24,16.10
2012,07,16,05,25,16.10
2012,07,16,05,26,16.10
2012,07,16,05,27,16.10
2012,07,16,05,28,16.10
2012,07,16,05,29,16.10
2012,07,16,05,30,16.10
2012,07,16,05,31,16.10
2012,07,16,05,32,16.10
2012,07,16,05,33,16.20
2012,07,16,05,34,16.20
2012,07,16,05,35,16.20
2012,07,16,05,36,16.20
2012,07,16,05,37,16.20
2012,07,16,05,38,16.20
2012,07,16,05,39,16.20
2012,07,16,05,40,16.20
2012,07,16,05,41,16.20
2012,07,16,05,42,16.20
2012,07,16,05,43,16.20
2012,07,16,05,44,16.20
2012,07,16,05,45,16.20
2012,07,16,05,46,16.20
2012,07,16,05,47,16.20
2012,07,16,05,48,16.20
2012,07,16,05,49,16.10
2012,07,16,05,50,16.10
2012,07,16,05,51,16.20
2012,07,16,05,52,16.10
2012,07,16,05,53,16.20
2012,07,16,05,54,16.10
2012,07,16,05,55,16.10
2012,07,16,05,56,16.10
2012,07,16,05,57,16.10
2012,07,16,05,58,16.10
2012,07,16,05,59,16.10
2012,07,16,06,00,16.10
2012,07,16,06,01,16.10
2012,07,16,06,02,16.10
2012,07,16,06,03,16.10
2012,07,16,06,04,16.10
2012,07,16,06,05,16.10
2012,07,16,06,06,16.10
2012,07,16,06,07,16.10
2012,07,16,06,08,16.10
2012,07,16,06,09,16.10
2012,07,16,06,10,16.10
2012,07,16,06,11,16.10
2012,07,16,06,12,16.10
2012,07,16,06,13,16.10
2012,07,16,06,14,16.10
2012,07,16,06,15,16.10
2012,07,16,06,16,16.10
2012,07,16,06,17,16.10
2012,07,16,06,18,16.10
2012,07,16,06,19,16.10
2012,07,16,06,20,16.10
2012,07,16,06,21,16.10
2012,07,16,06,22,16.10
2012,07,16,06,23,16.10
2012,07,16,06,24,16.10
2012,07,16,06,25,16.10
2012,07,16,06,26,16.10
2012,07,16,06,27,16.10
2012,07,16,06,28,16.10
2012,07,16,06,29,16.10
2012,07,16,06,30,16.10
2012,07,16,06,31,16.10
2012,07,16,06,32,16.10
2012,07,16,06,33,16.10
2012,07,16,06,34,16.10
2012,07,16,06,35,16.10
2012,07,16,06,36,16.10
2012,07,16,06,37,16.10
2012,07,16,06,38,16.10
2012,07,16,06,39,16.10
2012,07,16,06,40,16.20
2012,07,16,06,41,16.20
2012,07,16,06,42,16.20
2012,07,16,06,43,16.20
2012,07,16,06,44,16.20
2012,07,16,06,45,16.20
2012,07,16,06,46,16.20
2012,07,16,06,47,16.30
2012,07,16,06,48,16.30
2012,07,16,06,49,16.30
2012,07,16,06,50,16.40
2012,07,16,06,51,16.40
2012,07,16,06,52,16.40
2012,07,16,06,53,16.50
2012,07,16,06,54,16.60
2012,07,16,06,55,16.60
2012,07,16,06,56,16.60
2012,07,16,06,57,16.70
2012,07,16,06,58,16.70
2012,07,16,06,59,16.70
2012,07,16,07,00,16.80
2012,07,16,07,01,16.80
2012,07,16,07,02,16.80
2012,07,16,07,03,16.80
2012,07,16,07,04,16.80
2012,07,16,07,05,16.90
2012,07,16,07,06,16.90
2012,07,16,07,07,16.90
2012,07,16,07,08,16.90
2012,07,16,07,09,16.80
2012,07,16,07,10,16.80
2012,07,16,07,11,16.80
2012,07,16,07,12,16.80
2012,07,16,07,13,16.90
2012,07,16,07,14,16.90
2012,07,16,07,15,16.90
2012,07,16,07,16,16.90
2012,07,16,07,17,17.00
2012,07,16,07,18,17.00
2012,07,16,07,19,17.10
2012,07,16,07,20,17.10
2012,07,16,07,21,17.10
2012,07,16,07,22,17.10
2012,07,16,07,23,17.10
2012,07,16,07,24,17.10
2012,07,16,07,25,17.20
2012,07,16,07,26,17.20
2012,07,16,07,27,17.30
2012,07,16,07,28,17.30
2012,07,16,07,29,17.30
2012,07,16,07,30,17.30
2012,07,16,07,31,17.30
2012,07,16,07,32,17.40
2012,07,16,07,33,17.40
2012,07,16,07,34,17.40
2012,07,16,07,35,17.40
2012,07,16,07,36,17.50
2012,07,16,07,37,17.60
2012,07,16,07,38,17.60
2012,07,16,07,39,17.70
2012,07,16,07,40,17.70
2012,07,16,07,41,17.80
2012,07,16,07,42,17.80
2012,07,16,07,43,17.90
2012,07,16,07,44,17.90
2012,07,16,07,45,18.00
2012,07,16,07,46,18.00
2012,07,16,07,47,18.10
2012,07,16,07,48,18.10
2012,07,16,07,49,18.10
2012,07,16,07,50,18.10
2012,07,16,07,51,18.20
2012,07,16,07,52,18.20
2012,07,16,07,53,18.30
2012,07,16,07,54,18.30
2012,07,16,07,55,18.30
2012,07,16,07,56,18.30
2012,07,16,07,57,18.40
2012,07,16,07,58,18.40
2012,07,16,07,59,18.40
2012,07,16,08,00,18.40
2012,07,16,08,01,18.40
2012,07,16,08,02,18.30
2012,07,16,08,03,18.30
2012,07,16,08,04,18.40
2012,07,16,08,05,18.40
2012,07,16,08,06,18.40
2012,07,16,08,07,18.40
2012,07,16,08,08,18.50
2012,07,16,08,09,18.50
2012,07,16,08,10,18.50
2012,07,16,08,11,18.60
2012,07,16,08,12,18.70
2012,07,16,08,13,18.80
2012,07,16,08,14,18.80
2012,07,16,08,15,18.90
2012,07,16,08,16,18.90
2012,07,16,08,17,19.00
2012,07,16,08,18,19.00
2012,07,16,08,19,19.10
2012,07,16,08,20,19.10
2012,07,16,08,21,19.20
2012,07,16,08,22,19.20
2012,07,16,08,23,19.20
2012,07,16,08,24,19.30
2012,07,16,08,25,19.30
2012,07,16,08,26,19.40
2012,07,16,08,27,19.50
2012,07,16,08,28,19.60
2012,07,16,08,29,19.60
2012,07,16,08,30,19.70
2012,07,16,08,31,19.80
2012,07,16,08,32,19.80
2012,07,16,08,33,19.80
2012,07,16,08,34,19.90
2012,07,16,08,35,19.90
2012,07,16,08,36,20.00
2012,07,16,08,37,20.00
2012,07,16,08,38,20.00
2012,07,16,08,39,20.00
2012,07,16,08,40,20.10
2012,07,16,08,41,20.20
2012,07,16,08,42,20.30
2012,07,16,08,43,20.30
2012,07,16,08,44,20.30
2012,07,16,08,45,20.40
2012,07,16,08,46,20.40
2012,07,16,08,47,20.40
2012,07,16,08,48,20.50
2012,07,16,08,49,20.60
2012,07,16,08,50,20.60
2012,07,16,08,51,20.70
2012,07,16,08,52,20.70
2012,07,16,08,53,20.70
2012,07,16,08,54,20.70
2012,07,16,08,55,20.60
2012,07,16,08,56,20.50
2012,07,16,08,57,20.50
2012,07,16,08,58,20.40
2012,07,16,08,59,20.40
2012,07,16,09,00,20.40
2012,07,16,09,01,20.30
2012,07,16,09,02,20.30
2012,07,16,09,03,20.30
2012,07,16,09,04,20.40
2012,07,16,09,05,20.40
2012,07,16,09,06,20.50
2012,07,16,09,07,20.50
2012,07,16,09,08,20.60
2012,07,16,09,09,20.60
2012,07,16,09,10,20.60
2012,07,16,09,11,20.60
2012,07,16,09,12,20.60
2012,07,16,09,13,20.70
2012,07,16,09,14,20.70
2012,07,16,09,15,20.80
2012,07,16,09,16,20.80
2012,07,16,09,17,20.80
2012,07,16,09,18,20.80
2012,07,16,09,19,20.80
2012,07,16,09,20,20.80
2012,07,16,09,21,20.80
2012,07,16,09,22,20.90
2012,07,16,09,23,20.90
2012,07,16,09,24,21.00
2012,07,16,09,25,21.10
2012,07,16,09,26,21.20
2012,07,16,09,27,21.20
2012,07,16,09,28,21.20
2012,07,16,09,29,21.20
2012,07,16,09,30,21.20
2012,07,16,09,31,21.30
2012,07,16,09,32,21.30
2012,07,16,09,33,21.30
2012,07,16,09,34,21.30
2012,07,16,09,35,21.30
2012,07,16,09,36,21.30
2012,07,16,09,37,21.40
2012,07,16,09,38,21.50
2012,07,16,09,39,21.60
2012,07,16,09,40,21.70
2012,07,16,09,41,21.80
2012,07,16,09,42,21.80
2012,07,16,09,43,21.90
2012,07,16,09,44,22.00
2012,07,16,09,45,22.00
2012,07,16,09,46,22.10
2012,07,16,09,47,22.10
2012,07,16,09,48,22.10
2012,07,16,09,49,22.10
2012,07,16,09,50,22.10
2012,07,16,09,51,22.10
2012,07,16,09,52,22.10
2012,07,16,09,53,22.10
2012,07,16,09,54,22.10
2012,07,16,09,55,22.10
2012,07,16,09,56,22.10
2012,07,16,09,57,22.20
2012,07,16,09,58,22.20
